Theta_e
315 314 315 319 319 321 322 323 326 326 327 322 319 321 318 321 323 319 321 320 319 320 320 321 321 320 322 327 326 328 329 331 331 330 337 338 335 335 335 334 333 332 330 331 333 333 333 334 333 333 333 333 332 332 334 333 331 330 329 328 326 323 319 318 317 316 314 312 313 311 311 311 313 321 324 326 328 329 329 330 327 316 307 307 307 308 312 316 316 316 314 312 313 317 317 313 316
314 314 317 320 320 322 323 325 330 329 328 320 318 322 318 322 324 321 324 321 320 320 322 323 322 324 324 324 325 326 330 332 331 333 337 336 336 337 335 334 333 332 330 331 333 333 333 334 333 333 333 332 333 332 333 332 330 329 327 326 325 323 320 318 317 317 315 313 313 312 311 308 314 324 325 326 329 328 330 331 328 315 305 308 307 309 314 317 316 315 312 311 312 316 316 314 316
314 315 318 320 322 323 324 326 330 329 327 321 318 320 320 324 324 323 323 318 320 320 322 323 323 325 324 328 330 328 332 335 334 334 336 336 337 338 336 334 333 332 331 332 332 333 333 334 333 333 333 333 333 332 332 331 330 329 327 325 324 323 320 318 318 317 315 314 314 313 311 309 314 320 319 324 329 329 331 330 328 318 307 308 307 309 316 318 317 315 312 312 311 313 315 315 315
314 317 320 322 326 325 329 330 333 331 322 320 317 317 323 326 324 321 318 318 320 320 321 321 322 323 326 333 332 331 335 336 335 333 335 336 337 337 336 335 334 332 332 333 332 333 333 333 333 332 333 333 332 332 332 332 330 329 328 326 325 323 321 319 318 318 316 315 315 314 312 310 314 318 321 325 326 326 328 327 327 318 308 307 307 312 318 317 317 316 313 313 313 314 314 315 315
314 319 322 323 326 325 329 328 332 333 320 322 320 319 325 324 322 319 317 320 320 320 320 320 323 324 328 331 329 331 334 335 335 333 334 337 337 336 336 336 334 332 332 333 333 332 332 333 332 332 332 332 332 331 331 331 330 329 328 326 325 324 322 320 318 318 317 316 316 315 312 311 314 318 325 326 324 324 323 322 321 314 307 306 307 312 318 317 316 315 312 315 317 319 318 318 317
315 320 321 321 323 322 328 323 322 327 321 326 325 322 325 320 320 318 317 320 319 321 320 319 322 324 328 329 329 329 330 333 334 332 335 337 338 336 336 335 333 332 332 332 332 332 332 332 332 332 332 331 332 330 330 330 329 329 328 327 326 325 323 320 319 318 318 317 317 316 312 311 313 315 322 326 327 327 324 323 317 309 307 307 306 310 316 317 316 313 312 315 319 322 322 321 321
318 321 321 322 323 320 330 325 319 323 319 322 326 324 321 317 317 317 318 319 319 319 320 321 320 323 328 330 330 329 330 330 329 331 335 337 337 336 335 334 333 332 331 331 331 331 331 330 330 331 331 330 330 329 328 328 328 328 328 329 328 326 323 321 319 319 318 317 317 317 314 311 311 313 318 323 325 326 326 325 317 307 306 307 306 309 314 316 315 313 312 315 319 321 321 320 321
321 322 322 326 329 327 331 326 321 325 319 317 321 321 318 316 317 317 318 319 319 318 320 321 320 323 325 327 330 331 331 328 329 332 335 336 336 335 334 334 333 332 332 332 332 330 330 328 327 329 329 329 328 328 327 327 327 327 328 329 329 326 324 321 320 319 317 317 318 317 316 312 310 310 311 315 318 321 323 322 315 307 306 306 306 307 310 314 314 312 311 313 314 316 318 318 319
322 322 321 324 332 333 328 320 318 320 319 319 319 318 318 317 317 317 317 317 318 317 319 321 320 323 324 327 331 333 333 331 332 333 335 335 334 334 333 334 333 333 334 334 333 330 329 327 326 326 327 327 327 327 327 327 326 326 327 327 328 326 324 322 321 321 318 317 318 318 317 314 311 308 307 309 312 317 320 317 311 307 306 306 306 307 308 311 311 310 309 310 310 311 313 314 315
323 322 319 324 335 332 320 318 319 318 318 319 318 318 317 317 317 316 317 316 317 317 318 319 319 322 324 328 331 334 335 334 333 334 335 334 334 333 332 334 333 333 334 334 333 330 329 328 326 324 325 325 325 326 326 326 325 325 326 326 327 326 324 322 321 322 320 317 318 318 318 315 311 309 307 307 310 315 317 312 308 306 306 306 306 307 307 308 307 307 308 309 310 311 312 313 314
322 320 320 328 332 326 321 320 319 318 318 317 317 318 317 317 317 316 317 317 317 318 318 318 321 322 324 327 328 331 334 334 332 333 335 334 334 333 331 334 335 335 334 334 334 332 330 329 327 324 323 323 323 325 326 325 325 325 325 326 326 327 325 322 321 322 321 317 317 319 319 316 312 309 307 306 307 309 310 307 307 307 306 306 306 306 306 305 305 307 309 312 313 314 315 315 315
321 322 331 333 326 325 325 322 318 318 317 317 317 317 317 317 317 317 317 318 317 318 317 318 322 322 323 325 325 328 332 331 331 332 334 334 334 333 331 334 336 336 335 335 335 334 332 330 327 324 323 323 323 325 325 325 325 325 325 326 326 327 327 323 321 322 322 319 317 318 319 318 314 310 309 307 305 306 306 306 306 306 306 306 306 305 305 306 308 310 312 314 315 316 317 316 316
322 324 335 328 323 326 324 320 320 319 317 318 317 316 318 316 317 318 317 319 318 318 317 317 320 322 324 324 325 328 330 330 332 333 334 335 335 335 332 333 336 337 336 336 335 335 334 332 328 325 324 323 324 325 325 325 325 325 325 326 327 327 328 325 322 322 323 322 318 317 319 320 317 312 310 309 307 305 305 306 306 306 306 305 305 305 306 309 312 313 314 315 316 317 318 317 317
322 323 332 325 323 325 323 321 319 319 320 320 317 315 318 316 317 318 318 319 317 316 317 317 319 322 325 326 328 327 325 328 332 334 334 336 335 335 333 333 336 336 337 336 335 335 334 333 330 326 324 324 325 326 326 326 325 326 326 327 327 327 328 326 324 323 322 323 320 317 318 320 320 315 312 311 309 308 307 306 306 306 306 305 305 306 309 313 315 316 316 317 317 318 318 318 317
320 320 330 329 323 322 322 322 321 323 321 319 318 316 317 316 316 317 318 319 317 316 317 318 318 319 324 328 329 323 318 324 331 334 334 336 335 335 333 333 335 336 336 336 335 335 335 333 332 329 325 324 325 327 327 326 326 326 326 327 328 327 327 327 325 324 323 323 322 319 317 319 321 318 315 314 312 311 311 310 309 309 308 308 308 310 313 316 317 317 317 318 318 319 319 318 318
320 320 329 326 320 319 319 320 322 324 320 316 317 316 317 315 316 317 317 318 317 317 316 317 318 318 319 323 322 317 315 320 327 333 335 335 335 335 334 334 334 334 336 336 335 334 335 334 333 332 328 326 325 326 327 328 327 327 327 327 328 327 326 327 327 325 324 323 323 322 318 318 320 320 319 317 316 315 314 314 313 312 312 312 312 313 316 317 317 318 318 319 319 319 319 319 318
318 322 330 323 319 319 318 319 321 323 320 316 316 316 317 316 316 316 316 317 317 316 316 316 317 318 318 319 318 316 315 317 324 331 335 336 336 335 336 335 333 333 335 335 334 334 335 334 334 334 332 330 327 327 327 328 329 329 329 328 328 327 327 327 327 327 325 324 324 323 321 318 318 321 321 319 318 318 317 317 316 315 315 315 315 315 317 318 318 318 319 319 319 319 319 319 318
318 329 333 322 323 321 317 320 319 319 320 316 315 316 316 316 316 316 317 317 316 316 316 316 318 319 318 318 317 317 315 316 321 328 332 335 336 336 335 334 331 331 332 332 333 333 333 333 334 334 334 333 330 329 328 328 330 330 330 329 329 328 327 327 327 327 326 325 325 324 324 321 318 319 321 321 320 319 319 318 318 317 317 317 317 317 318 318 319 319 319 320 319 319 320 320 319
319 328 330 327 330 320 314 317 315 316 318 315 316 316 316 316 316 316 317 315 316 317 316 316 318 318 316 317 317 318 317 315 318 322 326 330 332 332 332 331 329 329 329 328 329 331 332 332 333 333 334 334 332 331 330 329 330 330 331 330 330 329 328 327 327 328 327 326 326 325 325 324 321 319 320 322 322 321 320 319 319 319 318 318 318 318 318 319 319 319 319 320 319 319 320 320 319
317 324 329 328 326 317 314 315 314 316 317 315 315 315 315 315 316 316 316 314 314 316 317 317 317 317 315 317 317 318 318 317 316 318 320 323 325 326 326 325 325 325 324 323 324 327 330 331 332 332 333 334 333 332 331 331 330 331 332 332 331 330 329 328 327 328 327 327 326 326 326 325 325 322 319 320 322 322 321 320 320 320 320 319 319 319 319 319 320 320 320 319 320 319 320 320 318
315 325 331 323 316 316 316 315 315 316 316 316 315 315 315 315 316 315 314 315 314 315 316 316 316 315 315 316 317 318 319 319 317 316 318 320 321 322 321 320 320 320 321 323 323 323 325 328 330 331 333 333 333 332 332 332 332 332 332 333 332 331 331 329 328 327 327 327 327 327 327 326 326 327 323 320 321 322 323 322 321 321 320 320 320 320 320 320 320 320 320 320 320 320 320 320 318
315 318 320 316 313 317 316 315 316 315 315 316 314 314 315 315 315 314 314 317 317 315 316 316 315 315 315 315 316 317 317 318 318 316 316 316 317 318 318 319 319 320 321 322 321 322 322 324 327 329 331 332 332 332 331 332 332 333 333 333 333 332 332 331 330 328 327 328 328 328 328 328 327 328 327 324 322 321 322 323 323 322 321 321 321 321 321 320 320 320 320 320 320 320 320 320 318
319 315 313 315 315 317 316 315 316 315 315 315 313 315 315 315 315 315 314 315 316 315 316 316 315 315 315 315 315 315 316 316 316 316 315 314 314 315 315 316 317 317 318 318 319 320 321 322 324 326 328 330 331 331 331 331 332 333 333 333 333 333 333 333 333 331 328 328 329 329 329 329 328 328 328 328 326 323 322 322 323 323 322 322 322 321 321 321 321 320 320 319 320 320 320 320 318
320 318 313 315 315 315 316 315 316 316 315 315 315 315 315 315 316 315 314 315 315 316 317 316 316 316 315 316 315 315 315 315 315 315 315 315 315 315 314 314 314 314 315 316 317 318 318 320 322 324 325 327 328 329 330 330 330 332 333 334 334 333 333 332 333 333 330 329 329 330 330 330 329 329 329 329 328 327 325 323 322 323 323 323 322 322 321 322 321 321 320 319 319 320 320 320 318
318 318 314 314 315 315 315 315 315 316 315 315 315 315 315 315 315 315 315 316 316 316 317 317 316 316 315 316 315 315 315 315 315 315 315 315 315 315 315 314 314 314 314 314 315 316 316 317 320 322 322 324 326 326 328 328 329 330 332 333 333 333 333 332 333 333 332 331 330 331 331 331 330 329 329 329 329 329 328 326 324 323 323 323 323 323 322 321 322 322 321 320 320 320 320 321 319
315 316 314 314 314 314 314 314 314 315 315 315 315 315 315 315 315 316 316 316 316 316 316 316 317 316 316 316 316 315 315 315 315 315 315 315 315 315 315 314 314 314 314 314 314 314 314 315 317 318 319 321 323 324 325 327 327 328 329 331 332 333 333 332 333 333 333 332 332 331 331 331 331 330 329 329 329 330 329 328 326 325 324 324 323 323 323 322 321 322 322 322 321 320 320 321 320
315 314 314 314 314 314 314 314 314 315 315 315 316 316 315 314 315 318 317 316 316 316 316 316 316 316 317 316 317 316 315 316 316 315 315 315 315 315 315 315 315 315 314 314 315 314 314 314 314 315 316 318 320 321 323 324 324 324 326 328 331 331 332 333 333 333 333 333 332 331 331 331 331 331 330 329 329 330 329 329 328 327 326 325 324 324 323 322 321 321 322 322 322 321 321 321 321
315 314 315 314 313 314 314 314 314 315 315 314 315 314 314 314 316 317 316 316 316 316 316 316 316 316 316 316 316 316 316 316 315 315 315 315 315 315 315 315 315 315 315 315 315 315 314 314 314 314 314 315 317 318 320 322 322 322 323 327 328 329 332 333 333 333 333 333 332 330 330 331 331 331 331 330 330 329 329 328 329 328 328 327 326 325 324 323 322 321 321 321 322 321 321 321 321
315 316 318 316 317 318 314 314 314 315 315 314 314 314 315 316 316 317 315 315 317 315 316 316 316 316 316 316 316 316 316 316 315 315 315 315 315 315 315 315 315 315 315 315 315 315 315 315 315 314 314 314 314 315 317 319 321 321 322 325 327 328 331 332 332 332 331 332 332 331 330 330 330 330 330 330 329 329 329 328 328 328 328 328 327 326 324 323 322 322 321 321 321 321 321 322 321
316 315 318 321 321 320 314 312 314 315 315 315 313 314 319 319 315 315 315 314 316 315 316 316 316 316 316 316 316 316 316 316 316 315 315 315 315 315 315 315 315 315 315 315 315 315 315 315 315 315 315 314 314 314 315 317 319 320 321 323 326 328 330 331 331 330 331 331 332 332 331 330 330 330 330 330 330 329 328 328 328 328 328 327 327 327 326 324 324 323 322 321 321 322 321 321 321
317 313 319 324 318 320 318 312 314 315 315 315 313 314 321 321 314 314 315 314 315 316 315 315 316 316 316 316 316 316 316 315 316 315 315 315 315 315 315 315 315 315 316 315 315 315 315 315 315 315 315 315 315 315 314 315 316 317 318 320 323 326 328 329 329 328 329 331 332 332 331 331 330 330 329 331 332 330 328 328 329 328 328 327 327 327 327 325 325 324 323 322 322 321 321 321 321
321 314 321 323 315 321 323 313 313 316 315 314 314 316 320 319 314 315 316 315 315 315 316 316 316 316 316 316 316 316 316 316 316 315 315 315 315 315 315 316 316 316 316 316 316 315 315 315 314 314 315 315 315 315 316 315 316 316 316 318 321 324 325 326 326 323 325 329 331 331 332 331 331 330 330 332 333 332 330 328 329 329 328 327 327 328 327 326 326 325 323 323 322 321 321 321 321
325 318 321 322 316 319 321 315 312 314 315 315 314 316 320 318 315 316 316 315 315 315 316 316 316 316 316 316 316 316 316 316 316 316 316 315 316 316 316 316 316 316 316 316 316 316 316 315 315 315 315 315 314 315 316 316 317 316 316 318 320 322 321 322 322 320 321 325 328 330 330 330 331 331 330 331 333 333 331 329 329 329 327 327 327 327 327 326 326 326 324 322 321 321 321 321 321
322 318 319 322 319 318 320 320 314 311 315 317 315 315 320 319 314 315 316 315 315 316 316 317 316 316 316 317 316 316 317 317 317 316 316 316 316 316 316 317 317 317 317 316 316 316 316 315 315 316 315 315 315 315 316 317 318 317 317 319 321 322 320 320 321 321 320 322 324 326 327 329 331 331 330 329 330 332 331 329 328 328 327 327 327 327 328 326 325 324 324 323 321 320 321 321 321
321 320 320 319 318 317 320 321 315 314 316 317 317 316 320 319 313 314 316 315 315 316 316 316 316 316 316 317 316 317 317 316 317 316 316 316 316 317 317 317 317 317 317 317 317 316 316 316 315 315 316 315 315 316 316 318 319 318 318 322 324 322 321 321 321 321 321 321 321 322 324 327 329 330 328 327 328 330 331 330 329 329 328 328 328 327 327 327 325 323 324 323 320 319 319 320 321
326 326 329 325 320 317 318 319 314 313 316 318 318 318 319 320 315 313 314 314 313 314 315 315 315 316 316 316 316 317 317 317 316 316 316 316 316 317 317 317 317 317 316 316 316 316 316 316 316 316 315 316 316 317 317 317 319 318 319 321 322 320 319 320 320 321 321 321 321 321 321 322 324 325 325 326 330 333 333 332 331 330 329 328 327 327 327 327 326 324 324 323 321 320 318 318 319
323 323 327 324 320 318 316 318 313 310 315 318 317 317 317 318 317 312 311 312 310 311 313 313 315 315 316 316 316 317 317 317 317 316 317 316 317 317 317 317 317 317 317 316 316 317 317 316 316 316 316 316 316 317 317 316 316 317 317 317 317 316 316 317 317 318 319 320 321 321 321 320 320 321 323 327 333 335 334 332 331 331 329 326 325 326 327 326 325 324 324 322 321 320 319 318 318
320 322 325 322 319 319 315 316 316 310 313 318 316 316 317 317 316 312 310 310 309 310 311 312 314 314 315 316 316 317 317 317 317 317 317 316 317 317 317 317 317 317 317 316 317 316 317 316 316 316 316 316 316 316 316 316 315 315 315 315 314 315 315 315 316 316 317 318 320 320 320 319 317 317 320 327 333 335 333 332 330 330 329 325 323 325 326 325 325 325 324 322 320 319 319 319 318
325 323 323 320 318 317 315 317 319 314 313 319 321 319 317 316 315 311 309 310 311 311 311 312 313 313 314 315 315 316 316 316 316 316 317 316 317 317 317 317 317 317 317 316 317 316 317 316 316 316 316 316 316 316 316 316 316 315 316 315 316 316 316 316 316 316 317 318 319 319 319 318 316 315 318 324 330 332 333 334 332 329 329 325 323 324 325 325 324 324 324 323 321 318 317 318 318
327 325 320 319 319 318 318 317 317 315 313 316 320 319 316 315 317 317 311 310 312 313 313 313 313 313 313 314 314 315 315 315 316 315 316 316 316 316 316 317 317 317 317 316 317 317 317 317 316 316 316 316 316 316 317 317 317 318 317 317 317 317 317 317 317 316 316 316 317 318 318 317 317 317 317 320 326 328 329 332 332 330 329 325 324 325 325 324 324 323 323 323 322 319 317 317 316
322 332 330 323 320 319 318 317 317 317 316 316 317 318 321 321 326 330 319 310 311 313 314 314 314 315 315 315 314 315 315 315 315 315 315 315 315 316 316 316 317 317 317 317 317 317 317 317 317 316 316 316 316 316 316 317 318 319 319 319 318 318 317 316 316 315 315 315 314 315 316 316 317 318 318 319 324 328 327 327 330 331 329 325 326 327 326 325 325 324 324 322 322 322 319 319 317
316 327 329 322 323 323 320 320 320 320 319 316 314 317 326 328 326 328 321 313 313 311 309 311 315 316 315 316 316 316 316 315 316 316 316 316 315 316 316 316 317 317 317 317 317 317 317 317 317 317 316 316 316 316 316 317 317 318 318 318 318 317 316 315 314 314 314 313 313 313 313 314 315 316 317 317 320 324 326 326 325 327 328 327 327 328 327 326 324 324 323 322 322 322 321 320 318
312 317 321 322 328 326 322 320 318 321 319 314 314 316 321 321 317 318 317 314 315 313 309 310 313 315 314 315 315 315 316 315 316 316 316 317 316 316 316 317 317 317 317 318 318 318 317 318 317 317 316 316 316 316 316 316 316 316 317 316 316 315 315 314 314 313 313 313 313 313 313 313 314 315 316 316 317 319 322 324 324 324 326 327 327 326 325 323 323 323 322 322 322 322 322 321 320
314 317 322 325 328 326 327 325 319 321 318 318 322 321 318 318 315 317 317 316 318 318 318 313 310 313 314 313 314 314 315 315 315 316 317 317 317 317 316 317 317 317 317 318 318 318 318 318 318 317 316 316 316 315 315 316 315 315 315 315 315 314 314 314 313 314 314 313 313 312 312 312 313 314 314 315 316 316 318 320 321 320 321 322 323 322 322 321 322 323 322 321 320 320 321 321 321
316 318 322 324 326 328 333 331 324 321 316 319 324 317 316 322 322 321 316 316 319 321 323 317 309 312 314 314 316 315 315 315 316 317 318 317 317 317 317 317 317 317 317 317 317 318 318 317 317 316 316 316 315 315 315 315 315 315 314 314 314 314 314 314 314 313 313 313 312 312 311 311 311 311 312 313 313 314 315 315 314 313 315 319 322 322 322 322 323 324 324 322 320 320 321 321 320
315 315 320 323 326 328 331 328 322 321 316 319 323 314 313 320 325 325 316 315 320 321 323 316 309 315 317 315 316 315 316 317 318 318 317 317 317 317 317 317 317 317 317 317 317 317 317 316 316 316 315 315 315 314 314 314 314 314 314 314 314 314 314 313 313 313 313 312 312 312 311 311 311 310 311 311 311 311 311 311 311 314 318 321 324 326 325 324 324 325 325 323 321 321 321 321 320
312 320 325 325 327 328 331 330 321 316 318 323 323 316 312 316 325 327 318 317 320 320 322 318 314 318 317 316 316 316 317 318 318 317 316 317 317 316 317 317 318 318 317 317 317 317 317 316 316 316 315 315 315 314 314 314 314 313 313 313 313 313 313 313 313 313 313 312 312 312 311 311 310 310 310 310 311 310 310 312 315 319 322 323 324 326 326 325 325 325 324 322 321 321 321 321 320
315 328 328 320 324 325 328 330 320 314 320 324 322 317 312 313 323 325 319 320 320 317 319 321 319 319 317 317 318 317 318 318 317 317 316 317 317 316 317 317 318 318 318 318 318 318 317 317 317 317 316 316 315 315 314 314 314 313 313 313 313 313 313 313 312 312 312 312 312 312 311 311 311 310 310 310 310 310 310 315 319 321 322 322 323 325 325 324 323 322 321 321 320 320 320 320 319
319 323 321 315 318 320 320 324 321 318 319 317 318 318 314 314 318 319 320 323 321 315 314 316 317 318 318 318 318 317 317 317 316 317 316 317 316 316 317 317 318 318 318 318 318 318 318 318 318 317 317 317 316 316 315 315 314 314 314 313 313 313 312 312 312 312 312 312 312 312 311 312 311 311 310 310 310 310 311 314 319 320 320 321 322 323 323 322 321 321 320 320 320 320 320 320 319
317 317 319 317 318 317 319 321 317 318 318 314 314 316 317 319 318 318 319 317 315 312 311 313 316 318 318 317 317 317 317 316 316 316 316 316 316 316 316 317 317 317 317 318 318 318 318 318 318 317 318 317 317 316 316 315 315 314 314 314 313 313 313 313 313 313 313 312 312 312 312 311 311 311 311 310 309 310 310 312 315 317 318 320 321 321 320 320 320 320 320 321 321 321 320 320 319
317 318 316 318 323 322 320 320 317 316 319 316 313 316 323 323 317 317 314 310 311 313 312 314 315 317 318 316 317 317 316 317 316 316 316 316 316 316 316 316 316 316 317 317 317 318 318 318 318 317 317 317 317 317 316 316 315 315 314 314 314 314 313 313 313 313 313 313 312 312 312 311 311 311 310 310 309 310 311 311 312 314 316 317 318 317 318 319 320 320 322 322 321 320 319 319 319
317 316 314 314 321 321 316 316 319 317 317 317 315 319 325 321 316 315 311 311 313 312 312 314 314 316 316 316 317 316 316 317 316 316 316 315 316 316 316 316 316 317 316 316 317 317 317 317 317 317 317 317 317 316 316 316 315 315 314 314 314 314 314 314 314 314 313 313 312 312 311 311 311 310 310 309 309 310 311 312 313 314 315 315 316 318 319 320 321 322 323 322 321 320 319 320 319
315 314 317 317 316 318 316 313 313 313 314 316 316 318 319 315 315 316 313 315 316 312 312 313 314 316 315 315 316 315 316 316 315 315 315 315 316 316 316 317 316 317 316 316 316 316 316 316 316 317 317 316 317 316 316 315 315 315 315 315 315 314 315 315 314 314 313 313 312 312 312 311 311 311 310 309 309 310 311 312 314 314 315 317 319 321 322 321 322 323 323 323 323 321 320 320 320
317 318 319 315 311 317 321 318 317 316 315 317 316 315 315 314 316 317 313 312 314 316 315 312 313 315 314 315 315 314 316 315 315 316 316 316 317 316 317 317 317 317 316 316 316 316 316 316 316 317 316 317 317 316 316 315 316 315 315 315 315 315 315 315 314 314 314 314 313 313 312 312 311 310 310 309 309 310 311 313 315 315 316 319 321 321 321 321 321 321 321 322 322 321 319 318 318
316 317 315 315 318 320 319 316 318 317 315 320 320 314 313 313 314 315 312 313 316 317 316 313 313 313 313 314 314 314 315 314 315 317 317 318 318 318 318 317 317 317 317 317 316 316 316 316 316 316 316 317 316 315 316 316 316 316 316 316 316 316 315 315 315 315 314 314 314 313 312 312 311 310 309 309 309 309 310 311 314 315 316 319 320 320 320 320 319 319 319 319 319 319 318 318 318
312 313 312 316 321 321 319 317 317 317 316 319 319 314 314 315 316 315 313 317 319 316 317 316 311 310 313 314 314 315 315 315 316 317 318 319 318 318 317 317 318 317 317 317 317 317 317 316 317 317 316 316 316 316 316 316 317 317 317 317 316 316 316 316 315 315 315 315 314 314 313 312 311 310 309 309 308 308 308 309 311 315 316 317 318 319 319 319 319 319 319 319 319 319 318 317 318
315 316 315 316 316 316 319 317 315 318 319 318 316 313 316 317 316 315 314 317 318 315 317 316 310 311 315 314 314 315 315 316 318 317 318 318 317 318 318 317 318 317 317 317 317 317 317 317 317 316 316 316 316 317 317 317 317 317 317 317 317 316 316 316 316 316 316 316 315 314 313 312 311 310 309 309 308 308 308 309 310 313 316 316 317 318 318 318 318 319 320 319 319 318 316 316 316
315 315 315 316 315 315 317 315 314 316 317 319 317 313 315 316 313 314 316 317 315 311 311 312 312 314 315 315 315 316 316 317 318 317 317 317 317 318 317 317 317 317 317 317 317 317 317 317 317 316 316 316 316 317 317 317 317 317 317 317 317 317 316 316 316 316 316 316 315 315 314 312 312 311 309 309 309 308 309 310 310 312 314 315 316 317 317 318 318 318 319 318 317 316 315 315 315
Wind_Speed
3 3 4 4 4 4 2 1 1 2 4 3 1 1 2 2 2 4 2 1 2 4 9 12 10 10 9 10 12 9 6 2 3 3 4 12 20 19 18 19 18 17 17 17 16 14 14 14 13 13 12 12 11 11 11 9 9 10 10 11 13 14 15 15 15 16 16 15 14 14 14 14 16 16 17 19 19 16 14 12 11 12 14 15 16 18 18 19 19 19 19 18 18 17 16 16 17
2 3 4 4 3 2 2 2 2 3 5 3 1 2 1 2 3 5 5 3 4 8 14 18 19 18 17 15 11 8 7 3 2 7 14 22 23 18 18 19 18 17 17 16 15 14 14 14 13 12 12 12 11 11 10 9 9 9 9 10 12 13 14 15 15 15 16 15 14 14 14 14 15 15 17 19 17 16 14 13 13 14 16 16 16 18 18 19 19 19 18 17 17 17 16 15 15
2 4 4 3 2 1 2 2 2 2 4 2 2 2 1 3 5 6 6 7 12 17 18 17 15 13 11 8 5 3 3 4 9 17 23 25 22 20 19 18 17 16 17 16 15 14 13 13 13 12 12 12 11 10 10 9 8 8 8 9 11 12 13 14 14 14 15 15 14 14 14 14 14 14 17 20 16 13 12 11 10 12 15 16 17 18 18 18 18 18 17 16 16 16 15 14 14
3 4 3 2 1 1 3 3 2 5 3 3 2 3 1 5 6 5 5 11 15 15 12 10 8 5 6 7 6 5 5 8 15 22 25 24 20 21 21 18 17 16 17 16 15 14 13 13 12 13 13 12 11 10 9 9 8 7 8 9 10 11 12 12 13 14 15 15 15 14 14 14 14 15 17 18 15 12 10 9 9 11 14 16 17 18 18 18 18 18 17 16 16 15 14 13 13
3 5 3 0 1 0 2 3 2 4 3 4 3 4 4 6 6 5 6 10 11 9 9 9 6 5 9 8 4 3 7 12 16 21 24 22 19 22 21 19 18 18 17 16 16 14 13 13 13 13 13 13 12 10 10 9 8 7 7 7 8 10 11 12 12 13 13 14 14 14 14 13 14 16 17 14 13 13 11 9 9 11 15 16 17 17 18 18 18 17 16 16 16 15 15 14 14
4 5 2 1 1 1 2 3 3 2 4 5 4 4 6 6 7 8 8 9 9 9 10 9 7 8 8 6 4 7 11 11 15 20 23 22 20 22 21 20 19 18 17 16 16 14 14 13 13 13 14 13 12 11 10 8 7 6 6 6 7 9 10 11 11 12 12 13 14 14 13 13 13 15 16 14 13 13 13 12 11 14 17 17 17 17 17 17 17 16 15 15 15 16 16 15 15
4 3 1 1 2 2 3 4 4 2 2 5 6 5 7 8 10 12 9 8 8 8 9 9 12 10 6 5 6 9 9 8 15 20 22 21 21 22 21 20 20 19 18 17 16 14 13 13 13 13 14 14 13 11 9 8 7 6 5 6 7 8 10 10 11 11 12 12 13 13 13 12 12 13 14 14 13 12 13 13 13 17 19 18 17 16 16 16 16 15 15 14 15 15 15 15 15
4 2 1 2 2 4 4 3 2 3 1 2 6 8 11 13 14 10 6 6 5 6 9 11 11 7 3 6 4 7 9 8 13 18 21 21 21 23 22 21 20 20 18 17 16 14 13 13 13 13 14 14 13 11 10 9 7 6 5 5 6 7 8 9 10 10 11 11 12 12 12 12 12 12 12 12 11 12 12 12 14 18 19 17 16 16 15 15 16 15 14 13 13 13 13 13 14
3 1 0 2 2 3 3 2 1 2 0 2 5 8 15 17 14 9 5 5 6 8 10 11 8 5 5 6 5 9 10 9 13 18 20 21 21 22 23 22 21 20 19 17 16 15 14 14 14 13 14 15 14 12 10 10 9 7 5 5 5 6 7 8 9 9 10 10 11 11 12 12 12 13 12 11 11 12 12 13 15 18 18 17 16 16 15 15 15 14 13 12 12 12 12 13 14
3 1 1 2 2 4 3 1 0 1 2 4 5 11 18 16 12 11 9 6 9 9 9 9 7 8 9 8 8 10 11 10 15 19 20 21 21 21 22 22 19 19 19 18 16 15 15 14 14 14 14 15 15 13 11 11 10 8 6 5 5 6 6 7 8 8 9 10 10 10 11 11 12 12 12 12 11 11 12 13 16 17 17 16 16 15 14 15 15 14 13 13 13 14 14 14 14
1 1 2 3 4 3 3 2 1 1 1 1 4 14 18 16 12 11 10 8 8 9 9 7 8 13 11 7 8 10 12 12 15 18 21 22 22 21 21 21 19 18 18 17 16 16 15 15 15 14 14 14 14 13 12 11 10 9 7 6 6 6 5 6 7 7 8 9 9 10 10 10 11 11 12 12 11 11 12 14 15 15 15 15 14 13 13 14 14 14 14 14 14 15 15 15 14
1 2 3 4 2 3 4 4 4 1 0 1 3 11 14 15 13 9 10 10 8 7 9 6 10 15 7 2 7 11 14 13 13 16 21 23 23 22 19 19 19 17 16 16 16 15 15 15 15 15 14 15 14 13 12 10 10 10 8 7 6 6 6 5 6 7 7 8 8 9 9 9 10 10 11 11 12 12 12 13 14 14 14 13 13 12 12 13 14 14 13 14 14 15 15 15 14
1 1 5 2 2 4 4 4 4 1 1 4 5 9 13 14 13 14 14 11 9 7 6 6 13 13 3 3 9 13 16 14 15 16 23 25 24 22 19 19 18 18 16 15 15 14 15 14 14 15 15 15 14 13 12 11 10 10 9 7 6 6 6 5 5 6 7 7 8 8 8 9 9 10 10 11 12 12 13 13 13 13 13 12 12 12 12 13 13 13 13 13 14 14 14 14 13
1 2 5 2 1 4 5 3 2 3 2 6 5 9 12 10 12 18 16 9 8 8 7 8 14 10 3 6 9 17 18 16 18 19 25 27 25 23 21 19 18 18 17 16 15 14 15 14 14 15 15 15 15 13 12 11 10 10 9 8 7 6 6 5 5 5 6 6 7 7 8 8 8 9 10 10 11 11 12 13 13 12 12 12 12 12 12 12 13 13 13 13 13 13 13 13 12
1 1 4 3 2 2 4 2 3 5 4 5 6 9 9 6 9 17 16 10 7 9 9 8 12 5 5 10 8 17 20 19 21 22 27 27 26 24 21 21 19 19 18 17 16 15 15 15 16 15 16 16 15 14 13 12 11 11 9 8 8 7 7 6 5 5 5 5 6 6 7 7 8 9 9 10 10 11 11 11 12 12 12 12 12 12 12 12 12 12 12 12 12 12 11 11 11
2 1 4 3 2 2 3 2 4 4 4 5 8 10 7 6 9 13 13 10 9 11 9 8 10 4 7 11 4 13 21 21 23 25 29 28 27 24 21 21 20 21 19 19 18 17 16 16 17 16 16 16 16 15 14 13 12 12 11 10 9 8 8 7 6 5 5 5 5 6 6 7 7 8 9 9 10 11 11 11 11 12 12 12 12 12 12 11 11 11 11 11 10 10 9 9 9
2 1 4 2 1 2 3 4 4 4 4 5 8 12 7 3 7 10 9 10 13 12 8 8 9 5 7 7 4 14 21 23 25 28 32 29 28 25 23 24 23 23 22 21 20 19 19 18 18 17 17 17 17 16 15 15 13 13 12 12 11 10 9 9 8 7 6 5 5 5 6 6 6 7 8 8 10 10 10 11 11 11 11 11 12 12 11 10 10 10 10 9 9 8 7 8 8
2 2 3 1 2 2 4 6 6 4 5 7 12 14 10 5 7 10 9 9 13 10 8 10 10 9 8 6 8 15 21 24 25 29 32 31 30 27 26 26 25 24 23 23 22 21 21 19 19 18 18 18 18 17 16 16 15 14 13 13 12 11 11 11 10 8 7 6 6 6 5 6 6 6 7 8 8 9 10 10 10 10 10 10 11 11 10 9 9 8 8 8 8 7 6 7 7
2 2 3 2 5 2 2 4 6 3 6 12 14 14 12 9 12 13 7 6 10 8 6 9 10 11 10 9 12 15 19 23 24 27 30 30 30 29 28 27 26 25 24 23 22 23 22 21 20 20 20 19 19 18 18 17 16 15 14 14 13 13 13 12 12 10 9 8 7 6 6 6 6 7 7 7 8 8 10 10 10 10 10 10 10 11 9 8 7 7 6 6 7 7 6 6 6
1 3 3 4 6 3 1 1 4 5 10 16 13 13 11 9 14 12 8 7 7 7 8 9 11 13 12 12 14 16 18 20 22 24 26 28 28 27 27 25 24 23 23 22 21 22 22 22 21 21 21 20 20 19 19 19 18 17 16 16 15 14 14 14 13 12 11 10 9 8 7 6 7 7 8 8 8 8 9 10 10 10 10 10 10 10 9 7 7 6 5 5 5 5 5 4 4
2 4 3 5 5 3 1 1 0 5 14 17 14 12 7 8 14 12 10 8 3 10 16 13 14 17 16 16 16 16 18 19 21 23 25 26 26 26 25 23 21 20 21 22 21 21 22 22 22 22 22 21 21 20 20 20 19 18 18 17 17 16 15 15 15 14 14 12 10 9 8 8 8 8 8 8 8 8 8 9 10 10 10 10 10 9 8 8 7 6 5 5 5 4 4 4 4
3 2 2 4 6 3 1 1 2 6 13 14 13 10 7 9 11 12 13 9 7 14 18 16 14 16 17 17 18 18 19 19 20 22 24 25 25 25 24 23 23 22 23 23 22 21 21 22 22 22 23 23 22 21 21 21 21 20 20 19 19 18 17 16 16 16 16 14 12 11 10 9 9 9 9 9 8 8 9 9 9 10 10 10 10 9 9 9 9 8 7 7 6 5 4 4 4
3 1 1 3 5 4 4 3 3 8 12 12 12 9 9 10 7 11 15 12 11 10 13 15 14 14 16 17 19 20 20 19 20 20 21 22 22 23 22 23 23 23 23 23 22 21 22 22 23 23 23 23 23 23 22 22 22 21 21 20 20 19 18 17 17 17 17 17 14 12 12 11 10 10 11 11 9 9 9 9 9 10 11 10 10 10 10 10 10 10 10 9 9 7 6 5 5
4 2 1 2 3 5 6 5 5 8 12 11 11 9 10 10 5 7 14 17 13 6 6 11 15 16 17 18 20 20 19 19 18 17 17 17 18 18 19 21 21 22 22 23 22 22 23 22 23 24 23 24 24 24 24 24 24 23 22 22 21 20 19 18 17 17 18 18 16 15 14 13 11 11 12 12 11 11 10 10 10 11 12 11 11 12 12 12 12 11 11 11 10 9 7 6 6
3 3 3 3 3 4 4 5 6 7 9 9 9 8 8 9 4 5 12 15 13 10 7 7 12 17 19 20 20 20 20 19 18 17 18 17 17 18 20 21 21 23 23 22 22 23 23 23 24 25 24 24 25 25 25 25 25 24 24 24 23 22 21 19 17 18 19 19 18 17 16 15 14 12 13 13 13 12 12 11 11 12 13 13 13 13 13 13 13 13 12 12 11 10 8 6 6
2 7 7 5 3 4 4 5 5 5 6 7 6 3 3 6 2 7 14 15 14 14 11 9 10 13 17 18 19 20 21 20 19 19 19 18 19 21 21 21 23 23 22 22 22 23 22 23 24 25 24 24 25 26 26 26 26 25 26 26 25 23 23 20 19 19 20 21 20 19 18 18 16 14 14 14 14 14 14 13 12 13 13 13 14 14 14 14 14 14 13 13 12 11 10 8 7
7 11 9 6 4 3 3 4 5 4 4 4 5 1 1 4 1 6 10 10 15 17 15 14 12 12 14 16 18 19 20 20 19 19 19 20 22 22 22 23 24 23 21 22 22 22 23 23 24 24 24 24 25 27 27 28 27 26 26 26 26 25 24 23 21 21 21 22 22 21 20 19 19 17 16 16 15 15 15 14 14 14 14 14 14 15 15 15 15 15 15 14 13 13 12 11 9
14 14 8 5 3 1 1 3 5 4 3 2 4 2 1 2 2 11 11 5 12 18 18 17 16 15 15 16 17 19 21 19 19 20 21 22 22 21 22 22 22 22 22 21 20 21 23 23 23 24 24 24 26 27 28 29 28 27 26 26 27 26 25 25 24 23 23 24 23 23 21 20 20 19 17 17 17 15 15 16 16 16 15 14 14 15 16 16 16 17 16 16 14 14 14 12 11
13 11 5 5 7 2 2 3 4 4 2 2 3 1 3 2 8 16 9 4 8 16 20 19 18 18 17 18 19 20 21 20 21 24 23 22 21 21 22 21 20 21 21 19 20 21 22 22 23 24 25 26 26 26 27 29 29 28 27 27 27 26 26 26 26 25 24 25 25 24 22 21 21 20 18 17 17 16 16 17 18 17 16 15 15 17 17 17 18 18 18 18 16 16 15 15 13
8 4 4 2 6 4 3 2 3 4 2 3 4 1 6 6 16 18 8 5 9 15 21 22 21 20 19 19 20 21 22 22 24 25 24 23 22 22 22 20 20 21 20 20 22 22 21 22 22 23 25 26 26 26 26 28 29 28 27 27 27 27 27 27 27 26 26 26 26 25 23 23 23 21 19 19 20 19 18 19 20 19 18 18 17 18 19 18 18 19 20 19 18 17 17 17 16
3 1 2 3 2 3 5 1 5 5 1 3 4 2 6 8 13 13 10 11 11 16 20 21 22 21 20 20 21 22 22 23 24 24 24 23 23 23 22 21 21 22 22 22 23 22 22 22 23 23 24 25 26 26 26 26 27 27 27 27 27 27 27 28 28 26 27 28 28 27 26 25 24 23 21 22 24 23 21 21 22 22 20 20 19 20 22 20 19 20 21 21 20 20 20 19 17
3 2 2 3 3 4 7 2 7 5 2 2 4 1 6 8 9 4 4 8 12 16 17 19 21 21 21 22 22 23 23 23 24 24 24 23 23 24 23 22 22 23 23 23 24 24 24 24 24 24 24 24 25 25 25 25 26 26 26 27 27 27 28 28 28 26 27 28 30 30 29 28 27 25 23 24 27 27 24 22 24 24 23 23 22 23 25 23 21 22 23 22 22 22 22 22 20
4 3 2 2 2 2 5 2 5 4 2 0 2 2 3 4 3 3 4 4 11 14 15 17 19 20 21 22 23 24 25 25 26 26 25 24 24 24 23 23 23 23 23 23 24 25 25 25 26 25 25 25 24 25 25 25 26 26 27 27 27 28 28 28 27 26 26 28 31 31 31 31 30 29 27 26 28 30 27 23 24 26 25 25 24 24 26 27 25 25 25 25 24 23 23 23 23
2 2 1 3 3 3 2 3 3 2 2 1 1 2 6 6 7 6 2 2 8 12 15 17 18 20 21 22 24 25 26 27 27 27 25 23 23 22 23 22 22 23 23 24 25 26 26 26 26 26 25 25 25 25 25 26 26 27 27 28 29 29 29 29 28 28 28 28 30 30 31 30 31 31 30 29 29 30 30 28 28 27 26 27 26 26 28 29 30 28 26 27 27 26 24 24 24
5 2 2 2 2 3 3 3 3 2 2 2 1 2 10 11 12 17 16 11 11 15 18 19 20 23 24 24 27 27 28 29 28 26 24 23 22 21 21 21 22 22 23 24 25 26 27 27 27 27 27 26 26 26 26 26 26 27 29 30 31 31 31 31 30 30 30 29 29 29 29 29 30 31 31 31 29 33 36 34 32 28 27 28 29 32 32 30 33 31 28 29 30 28 26 25 25
8 6 5 4 3 3 5 4 4 1 3 3 5 5 9 11 11 16 22 17 13 18 21 24 26 27 28 28 30 30 31 31 28 24 23 23 23 23 22 22 22 22 23 24 26 27 28 28 28 28 28 27 28 28 27 28 28 29 31 33 34 33 33 33 32 32 32 32 31 30 30 30 30 30 29 30 33 39 39 36 34 29 28 28 30 36 34 29 31 32 31 32 32 30 29 27 27
7 6 5 4 4 2 3 3 5 2 3 5 5 5 8 11 10 15 23 16 10 17 22 26 29 30 31 30 31 32 33 32 28 26 25 24 24 25 25 25 25 24 24 25 27 28 28 28 29 29 29 29 30 30 30 30 30 31 32 34 34 34 33 33 33 33 33 33 33 33 33 33 32 31 30 31 38 42 37 33 34 32 30 29 33 38 34 29 32 34 35 35 34 34 32 30 30
5 6 5 3 2 2 2 2 4 3 1 4 4 4 9 11 10 16 21 14 12 20 23 27 32 32 32 32 32 33 32 32 30 29 28 26 26 26 27 28 27 27 26 26 27 27 28 28 29 29 30 31 31 31 31 31 31 31 32 32 32 32 33 33 33 33 33 34 35 36 36 36 34 32 32 33 38 40 36 36 37 36 33 30 34 39 37 36 36 35 37 37 36 36 34 33 32
5 4 4 2 1 2 3 4 5 4 1 4 5 6 10 11 10 14 19 18 21 24 23 27 31 31 32 33 34 34 33 33 32 31 30 29 28 28 29 30 29 28 26 27 27 26 28 29 29 29 30 31 31 32 32 32 31 31 31 31 31 32 32 33 34 34 35 36 37 38 38 37 35 32 32 35 37 38 38 41 41 38 32 30 34 38 38 41 40 37 37 36 38 39 37 35 33
4 4 4 2 2 1 1 4 5 3 2 2 4 6 9 8 6 11 18 21 23 23 21 25 28 29 33 34 33 32 32 33 32 30 30 29 29 30 30 29 27 27 26 27 27 27 27 27 28 29 30 31 31 32 32 32 31 31 32 32 32 33 33 33 35 35 36 37 37 38 37 37 36 33 32 34 37 39 39 42 42 38 32 32 37 38 36 39 41 40 39 38 41 42 40 38 35
2 3 5 3 2 3 3 2 2 3 4 3 4 5 7 5 4 7 9 9 13 15 15 19 22 24 28 31 31 31 31 30 28 26 25 24 25 25 25 24 24 24 24 25 25 25 25 24 25 27 28 30 31 31 32 32 33 33 33 34 34 35 35 36 37 37 37 37 37 36 36 36 36 36 35 35 37 39 40 41 40 38 36 37 41 41 36 37 38 40 42 43 43 43 41 39 38
3 2 5 6 6 6 2 2 4 4 5 3 4 4 6 5 5 7 7 6 10 11 11 19 25 23 23 25 26 27 27 25 23 23 22 21 21 19 19 20 21 22 21 21 21 22 23 23 24 25 26 28 29 31 31 32 33 34 35 35 36 37 37 38 38 37 36 36 35 34 35 36 37 38 37 37 38 40 42 43 42 40 38 36 39 39 37 39 41 43 45 46 44 43 42 42 41
1 3 5 7 7 7 4 2 3 1 2 3 4 3 5 7 5 8 8 8 11 11 12 21 29 28 26 26 26 25 24 21 21 20 19 19 18 17 17 18 19 19 18 18 20 21 22 23 23 23 24 25 27 29 31 32 34 35 35 36 36 37 37 37 36 35 35 34 34 34 35 36 38 39 39 39 40 41 44 46 47 46 43 39 38 39 41 43 43 44 46 46 46 45 44 44 43
3 3 6 8 8 7 5 5 3 2 3 4 4 4 2 7 7 6 5 7 9 11 12 17 23 25 24 24 24 23 21 18 17 16 15 14 14 14 15 15 15 15 15 17 18 19 20 21 21 22 23 24 25 28 30 32 34 35 35 35 36 36 36 35 34 34 34 34 34 35 35 36 38 39 40 41 41 41 43 45 47 48 47 46 44 42 41 40 39 43 47 47 49 49 45 44 45
4 4 7 6 7 7 5 6 3 1 2 5 4 2 2 6 7 5 3 4 8 11 11 12 18 20 17 15 15 13 12 11 11 11 11 10 9 10 11 12 13 13 14 15 16 17 19 20 21 22 23 24 25 27 28 30 32 33 34 34 35 35 34 33 33 33 33 34 35 35 35 35 36 37 39 41 41 41 42 43 44 43 42 42 41 39 36 35 36 41 47 49 50 50 46 45 46
4 6 7 5 6 6 5 5 3 2 2 5 6 4 3 6 7 5 2 2 7 9 9 9 14 14 9 7 5 4 5 6 6 6 7 7 5 6 8 9 10 11 12 13 14 16 17 18 19 20 21 22 24 25 27 28 29 30 31 32 33 33 32 32 32 33 34 34 34 34 34 33 33 34 36 38 39 39 39 40 40 39 37 37 39 42 39 36 39 41 45 48 48 47 45 44 47
9 7 7 6 6 5 4 3 4 2 3 6 7 7 4 4 6 4 3 4 6 5 6 8 10 9 4 2 3 5 4 5 5 5 5 5 4 4 6 8 9 9 9 11 12 13 14 15 16 17 18 19 21 23 24 25 26 27 28 28 29 30 30 30 31 32 32 32 32 32 32 31 31 32 33 35 35 35 37 38 37 37 37 36 39 44 43 40 41 41 41 43 46 48 45 43 48
8 5 5 4 4 4 4 4 4 1 5 6 5 2 3 4 6 5 5 7 6 5 6 7 9 7 2 4 5 5 4 4 4 5 5 5 5 5 6 7 7 7 7 8 9 10 11 12 14 15 16 17 19 20 20 21 22 23 24 24 25 25 26 27 28 29 29 29 30 29 29 29 30 31 32 34 34 34 35 37 37 37 39 39 39 42 42 39 39 39 40 42 44 46 46 47 50
6 5 6 4 2 3 3 3 0 3 6 4 3 0 2 6 7 7 9 10 7 8 8 8 9 4 3 5 3 2 3 4 4 5 6 6 5 5 5 6 6 6 7 8 8 9 11 12 14 15 15 16 16 17 17 18 19 19 20 20 20 21 22 23 24 24 25 25 26 26 27 27 29 30 32 34 34 34 35 38 40 41 41 41 40 40 39 38 40 41 42 43 44 46 48 50 49
5 5 6 4 2 1 3 4 2 4 5 3 3 1 3 5 5 8 11 10 6 6 8 10 8 4 1 0 2 3 4 5 5 7 8 7 6 6 5 5 6 8 9 10 11 12 13 14 15 14 14 14 15 15 15 15 16 16 16 17 17 18 19 20 20 21 21 22 23 24 25 26 28 29 31 32 32 33 34 37 40 43 43 42 41 42 42 41 41 41 41 43 46 48 49 48 46
4 4 6 5 5 5 4 3 3 4 3 3 3 1 3 3 3 7 10 11 10 9 9 8 7 8 7 7 7 6 7 7 8 10 10 8 8 7 6 7 9 11 11 12 13 14 15 16 16 15 14 14 14 14 13 14 13 14 14 14 14 15 15 16 17 18 19 20 22 23 24 25 26 28 29 30 31 32 33 35 36 39 40 41 41 40 39 38 38 40 41 43 45 45 45 45 44
2 3 5 3 5 5 2 3 5 3 2 3 2 3 5 4 6 9 10 12 12 11 11 8 9 10 10 12 14 12 9 8 9 12 12 10 8 8 9 10 11 12 13 14 15 16 17 18 18 16 15 14 14 14 13 13 13 13 13 13 12 13 13 14 15 17 18 20 22 23 23 23 23 25 27 28 30 31 32 34 35 36 37 37 37 36 35 36 39 40 40 41 41 41 41 41 41
2 3 3 5 4 6 3 2 0 3 2 4 1 5 6 3 7 9 6 8 9 9 10 11 12 13 14 18 19 15 10 8 11 14 12 9 8 9 10 8 9 11 13 15 16 17 17 18 19 17 16 16 15 14 13 13 13 13 12 12 11 12 12 13 14 16 18 20 22 22 21 20 20 22 25 27 28 30 30 30 32 33 33 33 34 35 36 37 38 39 39 40 41 41 42 42 41
5 3 6 3 2 4 4 2 3 3 3 4 1 6 6 2 5 5 4 4 8 7 8 10 13 15 16 19 20 19 15 11 12 13 12 9 6 6 6 7 8 9 11 13 14 16 16 18 19 18 17 17 15 14 13 14 14 13 12 11 11 12 12 13 14 15 17 19 21 21 20 18 18 20 23 25 27 29 29 28 29 29 30 32 34 35 34 34 35 36 38 40 41 43 43 42 41
5 4 5 4 2 1 2 2 2 1 3 5 4 5 5 5 7 0 4 5 8 7 7 7 10 15 19 20 21 23 20 14 10 10 11 11 8 6 8 8 7 8 10 11 13 15 16 18 20 20 18 18 17 16 16 16 15 13 12 12 12 12 13 13 14 15 16 17 18 20 20 19 18 20 23 25 27 29 30 30 31 31 32 34 35 34 33 32 34 36 38 40 41 42 42 41 41
4 3 3 3 2 4 3 3 3 3 3 3 3 4 4 6 6 6 6 7 7 7 8 7 12 17 18 18 19 20 16 8 5 8 11 10 8 8 8 7 8 8 10 11 12 14 16 18 20 21 20 20 20 19 18 17 15 13 13 13 13 13 13 13 14 14 15 16 17 19 21 20 19 21 23 25 27 29 30 32 33 34 35 36 36 36 36 34 34 36 38 40 41 43 42 42 43
3 4 4 2 1 2 2 1 2 4 4 3 2 5 6 5 4 8 9 9 8 9 8 9 13 14 13 14 15 13 7 3 6 9 8 5 5 7 6 7 10 11 12 13 13 15 16 18 20 21 22 22 22 21 19 17 15 14 14 14 13 14 14 14 14 15 16 16 18 19 20 21 21 22 23 24 26 28 29 31 33 35 36 37 37 38 38 38 38 38 40 41 42 43 43 43 44
7 7 8 7 5 4 2 3 1 2 3 4 3 6 10 5 5 7 8 8 9 9 8 9 12 12 10 10 7 4 4 5 6 4 4 6 6 6 8 9 10 11 14 15 16 17 17 18 20 22 24 24 23 22 19 17 17 17 16 15 15 15 15 15 16 16 17 17 19 20 21 22 22 22 22 24 26 27 28 30 32 34 36 37 37 37 37 38 39 38 39 41 41 42 43 44 45
Wind_Direction
257 240 225 211 220 205 254 39 107 357 68 94 22 102 142 196 171 123 129 107 81 57 75 83 88 106 110 107 118 107 80 139 183 149 158 152 148 154 154 151 153 154 150 145 145 144 146 144 142 141 137 132 126 123 117 106 89 77 66 62 58 53 52 52 53 52 50 54 58 59 64 73 81 85 88 91 94 94 88 79 77 89 91 89 91 92 93 93 93 94 97 100 97 93 90 88 85
241 217 215 203 218 203 217 86 91 352 53 86 293 140 140 351 94 144 184 157 133 120 94 90 94 99 102 103 103 82 52 24 188 144 133 144 151 157 155 151 154 156 152 147 146 147 148 148 147 144 142 137 131 126 120 108 92 82 70 63 57 53 53 53 54 54 53 56 60 61 64 70 80 89 98 99 95 97 97 93 91 94 96 97 99 98 98 97 96 99 103 104 100 96 92 91 87
213 206 202 200 223 161 155 70 83 77 73 127 258 268 111 87 142 193 198 141 127 121 105 98 95 96 101 88 63 69 76 92 139 136 136 151 158 157 157 152 155 159 155 150 149 150 149 151 151 147 146 140 133 130 127 116 103 95 79 67 60 57 57 56 56 56 55 59 62 64 66 71 81 88 98 104 103 105 111 112 105 100 100 104 106 104 102 101 100 103 107 107 104 102 96 93 89
201 194 182 177 209 106 82 60 116 115 116 175 200 275 225 148 172 207 159 130 129 126 119 106 80 81 109 98 87 94 125 138 144 143 147 159 161 155 154 152 159 163 158 154 152 153 153 155 155 151 149 145 140 138 137 126 116 105 87 74 67 64 63 61 59 58 57 59 62 65 67 72 81 85 90 102 112 118 123 122 115 106 104 109 111 106 103 102 103 105 109 108 106 104 101 98 91
206 187 177 147 348 60 83 73 96 105 164 181 149 252 240 177 174 186 140 130 136 129 127 116 86 99 103 102 107 117 143 151 154 153 152 158 162 156 154 156 162 163 162 159 156 156 156 159 161 157 154 151 148 146 142 132 123 110 94 84 77 74 71 68 65 62 61 61 63 65 70 73 80 91 96 99 104 109 110 109 112 110 110 114 112 108 105 104 105 109 112 108 104 100 99 99 94
199 185 191 22 36 118 93 84 97 110 208 165 142 227 221 196 170 154 134 122 120 122 130 124 128 127 96 85 110 137 142 153 165 162 155 159 163 157 158 162 162 163 165 162 160 160 159 163 166 163 159 157 155 150 143 137 129 119 109 98 92 84 78 74 71 68 67 65 65 67 71 74 80 94 106 103 100 99 95 96 108 119 118 117 116 112 108 107 109 114 119 112 105 101 99 97 95
186 184 208 107 72 45 94 118 145 176 222 164 156 180 198 201 167 144 131 118 105 113 128 132 139 127 94 103 119 142 147 158 169 165 159 161 163 160 162 163 162 164 166 164 163 163 165 167 169 169 165 161 158 153 148 145 138 131 126 113 104 90 84 80 76 74 73 71 69 71 74 75 78 88 103 108 107 104 99 100 112 123 123 121 121 118 113 111 112 119 124 118 110 105 103 100 98
169 168 145 118 53 31 98 111 177 175 66 159 158 166 181 180 163 146 134 136 124 121 125 139 144 114 121 151 139 162 159 153 165 168 164 165 163 162 165 165 164 164 165 165 165 166 169 171 172 174 171 167 162 158 157 154 149 142 134 123 111 91 87 84 80 78 77 78 74 75 77 79 80 84 96 108 110 109 109 114 122 127 127 126 126 124 121 115 116 124 126 122 116 112 107 102 98
162 183 115 95 76 36 73 66 21 189 69 138 145 171 176 170 163 143 122 122 132 134 131 150 159 126 162 162 138 163 164 153 162 169 169 171 169 166 167 166 166 165 165 166 167 168 171 174 176 178 177 174 167 164 164 161 158 152 143 133 117 96 89 86 84 81 78 80 78 75 77 79 81 84 89 96 104 110 114 120 126 130 130 129 128 128 126 119 121 126 123 117 111 105 99 91 88
174 188 150 84 81 53 59 105 102 140 184 178 172 173 171 172 162 137 130 127 137 134 130 152 155 140 153 146 137 161 170 166 165 170 175 176 177 176 169 164 167 169 167 167 168 169 173 177 177 179 181 178 173 170 170 169 165 159 156 147 131 114 99 90 88 83 80 79 80 77 76 77 79 83 85 89 97 108 116 120 126 130 131 131 132 133 131 126 126 124 117 108 97 91 86 82 82
194 253 132 80 71 100 159 180 179 141 177 215 192 175 170 167 147 128 128 131 147 138 134 141 136 138 133 137 154 170 176 178 174 173 175 176 183 183 171 162 167 174 171 169 170 172 176 179 180 180 181 182 179 176 175 173 168 166 166 157 143 133 117 103 96 90 86 81 83 82 79 80 82 85 88 91 93 102 114 122 128 131 132 135 135 135 133 129 125 119 111 101 94 89 86 83 81
206 305 81 90 114 162 175 149 165 201 308 179 194 188 173 158 140 133 136 140 159 146 147 152 149 144 114 133 168 173 179 180 176 173 171 175 184 184 175 166 168 177 177 174 175 178 180 181 183 181 182 186 183 182 181 178 173 172 173 165 153 146 135 118 108 102 96 87 88 90 87 87 89 93 95 98 99 103 111 119 125 126 130 133 133 131 129 126 120 116 110 102 96 91 87 84 82
159 185 88 97 178 135 136 131 165 65 338 211 194 183 168 159 155 156 148 146 160 148 153 158 160 155 103 151 165 176 183 180 173 171 171 175 184 184 178 173 175 180 181 182 182 182 184 184 186 184 184 186 186 185 186 185 180 180 179 172 165 158 148 131 122 112 106 97 93 100 101 96 96 100 102 103 104 106 112 116 119 122 127 130 129 130 128 124 119 116 111 105 99 92 87 82 80
125 172 106 112 107 106 137 120 158 137 227 238 196 169 161 161 165 161 147 145 169 153 144 152 166 167 129 152 176 186 183 179 174 171 174 176 184 187 180 178 183 186 185 188 188 188 188 187 188 189 188 188 189 188 189 189 185 188 187 179 176 171 160 148 140 128 120 109 100 108 114 110 104 106 107 107 107 109 113 116 119 121 125 127 128 130 129 125 120 118 111 106 101 96 90 82 77
131 118 102 105 57 95 162 149 159 152 208 226 177 164 143 127 159 168 156 152 179 156 143 150 167 186 183 173 194 190 176 174 174 172 177 178 185 189 184 183 188 192 192 192 192 195 195 193 191 193 195 194 195 194 194 192 190 194 194 189 189 185 175 165 159 150 139 126 112 112 120 123 116 114 115 113 114 114 116 118 121 122 124 127 130 133 133 129 125 121 114 108 105 101 95 85 78
185 56 82 80 73 134 169 168 139 139 215 203 167 160 133 109 147 169 169 162 164 158 155 157 169 202 193 184 195 176 166 168 173 175 180 182 188 191 190 190 192 195 197 197 196 197 199 198 195 196 199 199 200 200 200 198 195 198 198 197 199 199 189 180 177 172 160 149 136 124 125 134 129 127 126 123 123 123 123 123 124 126 129 132 135 141 141 135 131 126 118 112 108 104 97 87 78
195 68 70 65 135 156 173 175 167 165 209 203 174 165 145 117 144 157 169 167 159 160 170 166 176 182 182 190 170 164 163 166 172 178 182 185 190 192 193 196 196 196 199 201 201 200 201 202 200 200 201 203 204 204 204 203 201 201 201 202 203 205 201 197 193 187 181 173 165 147 134 140 142 140 137 135 135 132 132 131 132 133 136 140 142 148 148 142 138 134 128 121 117 110 97 82 73
165 118 91 130 186 175 175 186 200 170 163 186 184 174 157 149 153 144 143 154 152 156 170 166 171 162 163 178 162 165 166 169 175 180 184 187 191 194 196 200 201 200 201 203 205 205 205 205 204 204 205 205 206 207 207 207 206 206 206 207 207 208 208 209 204 198 194 190 187 172 153 149 150 153 149 147 148 144 142 140 141 143 144 148 150 156 157 153 149 144 140 134 129 121 103 81 69
119 100 99 200 209 193 190 191 198 183 169 176 177 178 173 170 163 150 143 156 150 146 156 166 173 165 161 163 162 171 173 176 180 183 187 190 194 198 201 204 206 207 207 208 208 208 209 209 207 207 209 209 209 209 210 210 210 211 211 213 212 210 213 216 212 208 202 200 202 193 177 166 157 163 165 161 162 158 154 152 152 154 156 158 161 167 170 167 161 157 152 147 142 130 110 85 72
134 93 105 232 212 187 317 163 200 226 182 168 170 179 183 180 171 165 164 166 167 177 174 176 186 182 176 171 169 176 180 184 186 188 192 195 199 204 207 210 211 213 215 215 213 210 211 212 211 211 211 212 212 212 212 213 213 214 214 215 215 212 215 218 217 216 211 207 209 207 198 189 175 172 178 178 176 176 171 167 166 167 168 170 174 178 181 180 177 174 170 164 154 137 120 96 84
147 113 159 218 181 143 316 77 306 215 177 168 167 169 186 188 178 179 163 148 233 221 201 205 209 197 185 180 179 181 185 190 192 195 197 200 204 208 214 219 222 223 221 221 220 216 215 215 215 214 213 214 214 215 215 215 215 216 216 215 216 215 216 219 221 221 218 214 214 216 211 203 194 183 186 189 189 192 189 182 180 181 183 184 185 188 191 193 193 191 190 187 179 163 145 119 107
103 108 193 171 154 147 185 132 92 169 169 165 160 160 187 182 179 190 173 164 226 225 217 225 225 211 200 192 189 188 191 195 197 200 202 205 209 212 217 220 223 225 224 225 226 225 221 219 219 217 217 217 216 217 219 219 219 219 218 217 217 216 217 220 224 225 223 220 219 221 218 212 207 198 192 194 198 201 202 199 195 192 193 196 197 199 200 201 203 202 203 201 197 194 181 149 129
112 243 263 135 169 170 161 159 144 175 168 156 162 171 175 164 182 203 194 205 223 230 231 230 230 224 215 206 198 196 197 199 202 203 205 208 212 215 218 220 223 226 228 229 231 231 228 225 224 222 221 220 221 220 220 221 222 222 221 221 220 220 220 221 223 226 227 224 224 226 223 219 216 211 202 200 203 206 211 213 209 204 202 207 209 209 209 208 208 208 210 207 204 204 197 171 145
116 175 233 118 151 148 151 155 137 170 167 154 164 170 172 170 183 207 212 224 227 232 223 217 224 225 219 211 208 207 206 206 208 210 211 213 216 219 221 224 228 230 231 232 231 231 232 230 228 228 226 224 225 224 224 224 224 225 224 224 224 224 223 222 224 225 228 229 227 227 226 223 221 220 213 207 209 211 214 218 219 215 214 216 216 216 216 215 215 214 217 215 210 204 200 186 162
95 148 186 139 124 142 147 158 136 145 153 146 155 162 180 187 191 230 229 229 221 219 209 194 208 218 221 218 217 215 212 212 213 214 215 218 219 221 224 226 229 231 233 233 232 232 233 231 230 232 231 229 230 230 230 230 229 228 226 226 227 227 225 223 224 224 228 231 231 228 227 226 225 222 219 216 217 218 217 218 222 224 224 223 223 222 222 222 221 220 221 222 221 215 210 199 180
168 147 162 150 129 141 140 166 152 136 145 145 156 155 181 191 248 264 245 238 224 219 214 205 204 211 216 218 221 218 214 214 213 215 217 218 219 221 222 224 228 230 232 233 233 234 233 232 231 233 234 233 233 234 233 235 235 232 230 230 231 230 228 225 223 224 228 231 234 233 229 229 228 225 225 224 224 225 223 220 223 228 230 230 231 230 227 226 226 226 227 227 228 226 222 212 199
155 133 130 123 122 141 138 170 163 147 142 151 170 152 189 181 198 257 250 240 222 216 211 215 219 217 213 213 217 216 215 215 215 218 218 217 220 222 222 222 227 230 231 232 232 233 233 233 233 234 235 233 233 235 236 237 240 239 235 233 234 233 232 229 226 225 227 230 235 236 234 232 231 228 227 228 227 228 228 225 226 231 233 234 236 236 232 229 226 228 232 232 231 231 227 218 210
140 127 101 53 61 141 174 155 161 161 128 151 157 120 243 140 175 247 250 237 220 216 213 217 222 223 220 218 218 218 219 218 219 222 220 223 226 229 228 228 231 231 232 233 232 233 233 233 233 234 235 235 234 235 236 237 240 243 240 236 236 236 234 232 230 228 227 229 234 237 237 236 235 233 230 230 231 233 235 233 232 235 237 238 242 240 234 231 228 228 230 231 231 231 229 222 215
134 122 96 355 8 15 234 166 168 175 134 171 133 74 278 201 222 241 240 230 228 217 216 219 222 227 226 225 226 226 228 226 224 228 230 233 237 239 239 241 240 238 237 238 235 233 234 235 235 234 235 236 237 237 237 237 238 241 242 239 238 236 234 233 233 232 230 228 232 236 238 238 238 240 239 236 236 237 239 239 239 241 243 242 244 244 236 230 229 229 229 229 230 231 230 226 218
134 104 99 27 11 349 255 179 176 167 140 186 137 235 275 247 235 236 235 257 238 214 216 219 222 229 230 231 232 234 237 235 234 237 239 239 240 241 244 246 245 244 242 238 237 236 236 235 236 236 235 236 238 238 237 236 236 238 240 240 238 236 234 234 235 235 233 230 231 234 236 236 236 240 243 242 241 241 239 240 243 244 244 244 246 248 241 234 232 230 230 230 231 232 230 226 221
124 79 69 64 95 276 289 202 164 148 187 216 119 184 262 275 262 250 253 258 231 215 218 218 222 227 231 235 237 242 243 242 244 245 244 244 243 242 244 244 243 245 243 240 240 240 238 237 236 236 236 236 237 237 236 236 237 238 240 239 237 236 235 236 237 237 235 232 233 234 235 235 236 238 241 241 241 243 241 240 242 243 243 244 248 250 242 236 237 232 229 231 231 230 228 225 222
48 97 317 345 148 259 306 231 173 156 205 209 104 194 263 281 289 306 271 234 210 220 226 220 224 227 232 239 243 248 250 248 249 249 246 245 243 243 243 241 241 242 244 244 244 241 240 240 238 237 237 237 237 238 238 237 238 240 240 239 238 238 238 238 238 239 237 234 234 235 235 235 235 236 237 239 241 242 242 240 239 240 243 244 247 250 241 234 238 235 228 231 234 231 227 224 221
4 99 202 274 154 255 312 260 209 179 165 33 96 216 265 282 262 65 61 186 202 223 233 227 230 233 237 244 249 253 256 253 251 249 247 244 243 243 243 243 242 243 245 247 246 244 243 241 240 240 238 237 238 240 241 240 240 240 241 240 239 239 240 242 241 241 239 236 235 235 236 237 238 238 235 236 240 242 243 242 240 241 245 245 246 250 243 233 235 235 228 227 232 234 230 226 221
293 40 158 226 175 181 276 285 259 137 139 262 43 220 251 263 260 266 289 240 223 232 240 239 237 241 244 249 253 256 258 259 257 254 252 249 248 247 245 245 244 244 246 247 249 248 247 246 245 245 243 240 239 240 242 243 242 241 241 239 239 240 242 244 243 242 241 239 237 237 236 236 239 241 239 237 239 242 244 246 246 245 246 243 243 248 244 236 233 232 230 227 227 231 232 229 225
190 184 153 226 196 190 238 253 247 86 95 233 132 242 259 266 274 271 268 267 255 247 251 255 253 252 252 253 256 258 259 261 261 261 260 258 257 255 251 248 245 246 246 247 249 249 249 248 247 247 246 245 242 242 242 242 240 239 238 235 236 239 241 242 242 242 243 242 240 239 236 234 236 240 241 240 242 242 241 241 240 239 241 240 243 244 238 237 235 229 230 228 224 225 228 230 228
168 172 146 162 172 225 242 251 270 113 115 236 219 226 259 270 280 277 274 274 259 254 258 260 260 259 257 255 257 259 259 261 265 266 265 263 262 262 258 256 255 254 252 250 249 248 247 246 245 246 246 246 245 243 241 239 237 235 233 231 234 238 240 241 242 244 245 244 243 241 239 239 239 241 240 240 245 243 236 234 233 232 234 239 248 243 234 241 243 235 234 231 225 222 220 224 227
134 123 106 141 155 240 259 278 311 53 140 257 250 241 263 268 272 274 276 280 256 251 256 257 260 259 257 256 256 257 257 261 267 267 266 264 263 263 261 260 259 257 254 252 249 248 246 244 244 244 245 246 245 243 241 238 236 234 232 233 236 239 240 242 244 246 247 247 247 245 244 245 245 243 236 238 246 240 234 238 237 231 232 243 252 243 236 248 249 242 238 231 227 225 219 217 221
95 116 112 90 129 230 266 280 308 19 130 276 332 306 270 262 265 271 275 278 252 244 244 250 256 256 257 256 255 256 257 261 264 264 264 263 261 261 260 259 258 258 257 255 253 251 249 246 244 244 245 245 246 246 244 241 239 239 239 240 241 241 242 244 247 249 250 250 249 249 250 250 248 242 233 233 240 236 237 245 239 232 235 247 251 238 235 242 241 240 239 232 227 227 224 220 218
81 109 118 101 166 243 302 312 317 15 107 276 350 336 276 262 258 265 265 261 259 255 248 252 257 257 257 256 256 258 260 263 264 264 265 264 263 261 259 259 259 260 260 257 256 254 251 250 247 245 244 245 246 248 247 245 244 243 244 244 243 242 244 246 248 250 250 251 251 251 252 251 248 243 232 229 233 234 239 241 235 232 240 252 249 237 237 239 235 235 238 237 231 225 222 222 221
85 104 122 196 244 148 281 304 314 358 48 277 339 321 282 278 276 267 261 257 264 269 263 260 259 258 259 260 261 262 263 265 267 268 269 267 265 263 260 260 260 261 259 256 254 252 252 252 252 250 248 247 246 247 248 248 246 245 245 245 244 244 244 245 247 248 249 249 250 250 250 249 246 243 236 229 230 233 237 237 235 235 245 256 247 236 240 242 238 237 236 237 235 227 221 220 220
0 128 137 178 196 161 193 286 316 348 7 15 13 327 290 307 328 287 277 272 272 276 277 274 265 259 260 260 260 260 261 264 268 272 273 270 266 265 264 262 261 261 259 257 256 255 256 256 256 254 253 251 249 247 247 247 245 244 244 244 244 243 242 242 243 244 246 247 249 251 250 248 245 242 238 232 229 231 234 236 236 239 252 257 244 236 240 242 242 244 243 241 241 235 229 224 221
325 230 171 168 161 152 161 12 39 34 352 334 26 354 288 311 318 277 292 315 288 288 297 287 278 270 262 258 256 257 259 263 270 275 276 273 269 266 262 258 257 258 258 258 258 257 258 258 257 256 255 254 252 250 249 248 247 246 246 246 245 245 245 244 244 245 247 249 253 254 254 252 249 245 242 237 232 230 233 236 236 241 250 248 238 237 242 245 246 248 247 245 243 239 235 229 225
302 241 164 145 126 119 128 95 65 80 260 295 50 99 267 302 285 255 276 290 287 297 297 279 272 267 262 260 260 261 263 266 271 275 274 273 270 266 262 259 260 263 264 262 258 257 256 256 256 256 255 255 254 252 250 249 249 248 249 249 250 250 250 251 251 251 252 255 257 258 256 254 252 249 247 243 238 234 234 236 237 240 242 241 240 242 246 249 251 248 246 246 242 235 232 232 230
233 231 130 127 118 124 142 115 99 218 246 319 17 117 235 291 266 249 285 298 296 293 282 274 271 270 270 270 269 270 271 270 269 268 269 269 268 266 266 266 267 266 265 261 258 258 257 258 258 256 256 254 253 252 251 250 250 250 251 251 252 252 253 255 256 255 255 255 256 257 257 255 253 252 250 247 244 240 237 236 238 239 239 240 243 246 247 249 250 247 245 241 236 231 231 236 236
243 200 126 134 128 129 126 105 102 1 0 311 312 127 207 271 274 296 325 295 290 280 270 274 280 284 286 282 277 274 270 261 255 256 260 260 259 264 266 265 264 261 258 257 258 259 259 258 257 254 253 252 251 250 250 251 251 251 251 252 253 253 254 256 256 255 254 253 253 254 254 254 253 252 250 248 246 244 241 238 237 238 237 238 240 243 245 248 248 249 248 241 234 231 232 236 239
178 142 98 78 73 82 81 93 111 41 5 256 232 178 205 268 283 306 337 249 259 267 271 277 286 295 297 282 261 224 226 229 233 241 243 238 238 258 266 264 263 260 255 254 254 255 256 256 255 253 252 251 251 250 250 250 251 251 251 251 252 254 255 256 256 255 254 253 253 253 253 253 252 251 248 247 246 243 240 237 235 235 236 238 240 241 243 246 247 249 249 244 238 235 236 239 243
132 104 62 46 27 37 44 54 87 64 292 254 225 194 195 272 280 258 219 221 225 251 286 293 302 318 321 238 147 142 173 193 207 222 226 233 248 274 276 274 271 265 256 251 249 250 253 255 255 255 253 251 251 250 251 251 252 253 253 253 254 255 257 257 258 258 258 258 258 257 256 254 253 252 249 247 246 241 235 232 232 233 235 238 240 241 242 245 247 248 248 245 240 237 238 244 246
109 82 70 61 346 11 18 359 46 131 253 266 270 211 164 234 262 259 252 255 238 228 262 297 315 331 53 128 135 135 159 185 207 230 240 246 267 284 274 265 264 262 259 255 251 248 250 252 253 254 254 252 253 252 253 253 253 254 255 256 257 258 259 259 260 262 263 263 263 262 260 256 253 251 249 248 245 240 231 226 228 230 232 235 238 239 240 241 244 247 248 248 246 242 241 246 246
79 90 97 88 332 6 349 309 17 231 244 275 312 322 199 234 247 263 268 266 246 215 234 295 316 307 109 111 128 151 201 218 230 254 259 254 268 283 264 250 255 263 266 260 252 248 249 252 253 255 257 257 256 255 255 255 254 255 256 257 258 258 259 260 261 264 265 266 266 265 263 260 256 251 248 247 246 242 233 225 225 228 230 233 235 236 237 240 243 247 249 249 248 245 244 247 247
129 137 132 132 135 126 269 268 275 268 261 300 327 267 255 277 265 245 246 254 254 233 255 292 303 268 218 157 251 256 249 250 268 279 275 271 287 291 267 255 260 265 266 259 255 255 256 258 260 262 263 260 258 256 254 252 252 253 254 255 256 256 257 259 262 264 266 268 268 268 268 266 261 255 251 248 247 247 240 232 229 229 230 233 236 239 240 242 245 248 249 250 249 248 247 248 248
178 155 135 150 157 163 211 216 216 256 280 302 308 259 201 223 272 252 252 273 288 291 290 287 261 247 256 255 248 258 268 268 276 286 286 280 283 276 248 244 252 259 264 264 264 264 264 266 267 267 265 261 257 253 248 247 248 250 251 251 252 254 257 260 263 264 265 266 267 268 269 268 264 259 254 249 247 246 243 238 234 233 232 234 238 242 243 242 243 246 249 251 251 249 248 248 247
228 122 112 179 186 154 155 194 182 186 308 293 253 235 213 209 276 276 271 283 289 290 298 292 259 253 265 267 262 263 266 267 280 292 291 280 268 249 233 238 251 262 269 270 270 270 270 271 271 268 262 256 251 244 240 240 242 244 244 244 247 249 254 258 261 265 266 266 267 267 267 266 262 259 255 250 246 243 241 238 234 233 234 236 238 240 242 241 242 244 247 249 249 247 245 244 243
180 137 182 219 176 124 113 242 66 82 258 270 217 251 282 326 290 280 281 285 290 294 296 293 282 277 278 277 276 273 263 265 294 303 300 286 263 242 242 259 276 281 281 279 278 276 273 271 270 268 258 249 243 236 231 231 233 235 236 237 240 244 249 255 260 266 269 271 269 267 265 261 257 256 254 251 247 243 241 237 234 232 232 235 238 239 240 241 241 241 243 247 248 244 240 238 238
129 179 209 201 92 87 107 205 344 37 249 272 257 247 279 317 271 305 13 273 265 284 298 300 294 284 279 279 282 282 275 275 296 308 311 309 285 261 289 322 317 306 300 296 292 287 279 270 267 264 255 245 238 233 228 227 228 229 230 232 237 242 248 254 260 264 267 271 271 269 265 260 256 255 253 250 246 243 239 235 232 231 231 235 239 239 238 239 240 241 243 247 249 247 243 240 239
127 178 177 123 119 200 113 162 203 171 245 275 286 266 258 221 228 347 76 194 224 255 282 292 279 270 272 273 271 274 279 284 296 312 323 331 337 340 352 352 335 323 316 309 301 293 284 273 267 263 254 241 232 228 224 223 225 226 227 230 235 242 248 253 259 264 267 270 274 274 269 262 257 254 251 248 244 242 239 233 229 229 230 233 238 240 240 242 243 243 245 249 252 252 247 242 240
68 105 133 109 141 175 165 161 168 170 211 254 297 301 256 222 201 166 183 216 223 246 266 269 264 266 270 269 267 275 286 293 297 312 325 334 352 14 20 2 338 325 317 313 308 300 290 278 270 264 252 239 231 226 220 219 222 224 226 230 234 241 247 254 259 264 269 272 274 274 271 267 259 253 251 249 246 244 241 236 231 229 229 232 235 239 244 247 248 248 249 250 252 253 248 241 239
150 166 180 181 110 114 162 179 130 139 168 205 275 283 263 241 186 172 195 219 223 234 248 260 271 281 284 280 280 287 298 317 305 311 330 0 36 37 14 341 330 322 316 315 312 308 300 287 276 264 250 240 235 232 225 221 221 222 225 227 233 241 247 254 261 264 269 274 274 274 273 269 262 255 251 250 249 247 243 238 233 230 231 233 235 238 242 246 249 251 252 251 250 250 247 242 240
173 184 196 188 164 130 158 232 262 116 172 181 180 273 272 242 181 182 195 210 219 222 222 246 280 298 302 298 296 299 311 318 316 337 32 39 29 5 336 326 325 322 320 318 313 311 307 297 285 269 254 245 240 237 230 224 222 224 227 230 234 241 246 251 258 262 267 272 274 276 274 270 265 259 254 251 251 250 244 239 236 235 234 235 237 239 241 243 246 249 251 250 248 247 244 241 241